Simultaneous Nadir Overpasses (SNOs) Predictions

Prediction of SNOs between LANDSAT-8 and METOP-A Satellite Orbit:

Table of predicted SNOs for the next 14.0 days since TLE Epoch: 12/2/2016
Index Date (LANDSAT-8) Time (LANDSAT-8) Lat,Lon (LANDSAT-8) SZA (LANDSAT-8 ) Date (METOP-A) Time (METOP-A) Lat,Lon (METOP-A) SZA (METOP-A ) Distance(km) Time Diff (sec)
1 12/03/2016 00:31:29 -81.12, 31.95 74.59 12/03/2016 00:31:02 -81.12, 31.82 74.61 2.24 27
2 12/03/2016 01:20:54 81.15,-159.93 105.50 12/03/2016 01:21:40 81.15,-159.98 105.51 0.91 46
3 12/05/2016 20:05:43 -81.14, 98.66 74.21 12/05/2016 20:05:22 -81.14, 98.78 74.21 2.09 21
4 12/05/2016 20:55:09 81.14, -93.61 105.81 12/05/2016 20:56:02 81.14, -93.80 105.81 3.28 53
5 12/08/2016 15:39:58 -81.13, 164.95 73.96 12/08/2016 15:39:44 -81.13, 164.96 73.96 0.27 14
6 12/08/2016 16:29:23 81.16, -26.98 106.11 12/08/2016 16:30:22 81.16, -26.90 106.15 1.43 59
7 12/11/2016 11:14:11 -81.14,-128.44 73.72 12/11/2016 11:14:04 -81.13,-128.52 73.73 1.44 7
8 12/11/2016 12:03:36 81.16, 39.60 106.35 12/11/2016 12:04:42 81.16, 39.60 106.37 0.57 66
9 12/14/2016 05:59:12 80.79, 125.53 105.70 12/14/2016 05:57:58 80.92, 125.28 105.76 15.30 74
10 12/14/2016 06:48:26 -81.12, -62.24 73.60 12/14/2016 06:48:26 -81.12, -62.40 73.62 2.62 0




NCC Satellite Simultaneous Nadir Overpasses (SNOs) Prediction Service
